"2016-01-19 00:00:00",1297371,4.748,342.8,9.64,1.957,11.22,103.1809,7.42,8.59,24.61,0,110.1,13.19,8.20,304.8
"2016-01-19 00:00:30",1297372,1.256,338.4,33.04,0.687,10.47,103.1623,7.372,8.46,23.9,0,110.1,13.24,8.15,300.4
"2016-01-19 00:01:00",1297373,3.128,309.8,10.73,1.958,11.62,103.1507,7.343,8.5,22.79,0,110.1,13.19,8.12,271.8
"2016-01-19 00:01:30",1297374,3.407,2.551,29.42,1.659,13.49,103.1519,7.346,8.68,23.61,0,110.1,13.2,8.12,324.6
"2016-01-19 00:02:00",1297375,4.363,353.7,7.403,1.251,12.32,103.153,7.349,8.58,24.02,0,110.1,13.2,8.13,315.7
"2016-01-19 00:02:30",1297376,3.299,353.5,8.76,0.952,9.81,103.1571,7.359,8.42,24.28,0,110.1,13.25,8.14,315.5
"2016-01-19 00:03:00",1297377,4.828,348.8,10.11,1.473,11.81,103.1552,7.354,8.5,24.58,0,110.1,13.2,8.13,310.8
"2016-01-19 00:03:30",1297378,5.321,347.4,11.81,1.527,11.82,103.145,7.328,8.55,24.56,0,110.1,13.2,8.11,309.4
"2016-01-19 00:04:00",1297379,3.962,339,8.66,1.108,10.28,103.1298,7.289,8.37,24.02,0,110.1,13.25,8.07,301.0
"2016-01-19 00:04:30",1297380,4.682,336.8,18.02,1.516,13.69,103.1305,7.291,8.57,23.85,0,110.1,13.21,8.07,298.8
"2016-01-19 00:05:00",1297381,7.624,305.1,8.99,1.618,14.19,103.1325,7.296,8.59,23.54,0,110.1,13.21,8.07,267.1
"2016-01-19 00:05:30",1297382,5.668,290.9,14.23,2.197,12.93,103.1334,7.299,8.48,23.65,0,110.1,13.21,8.08,252.9
"2016-01-19 00:06:00",1297383,4.001,302.2,28.94,1.494,11.42,103.1329,7.297,8.39,23.9,0,110.1,13.21,8.07,264.2
"2016-01-19 00:06:30",1297384,2.879,348.8,17.84,1.31,11.29,103.1202,7.265,8.46,24.48,0,110.1,13.21,8.04,310.8
"2016-01-19 00:07:00",1297385,3.716,13.2,13.11,2.061,11.3,103.1212,7.267,8.32,24,0,110.1,13.21,8.04,335.2
"2016-01-19 00:07:30",1297386,3.457,0.541,12.2,1.424,10.15,103.1224,7.27,8.25,23.69,0,110.1,13.26,8.05,322.5
"2016-01-19 00:08:00",1297387,6.034,347.5,13.66,3.08,11.53,103.1204,7.265,8.38,23.8,0,110.1,13.21,8.04,309.5
"2016-01-19 00:08:30",1297388,9.65,324.5,16.9,2.261,13.51,103.1148,7.251,8.5,23.97,0,110.1,13.21,8.03,286.5
"2016-01-19 00:09:00",1297389,6.697,314.7,22.45,1.838,14.11,103.1112,7.242,8.49,23.85,0,110.1,13.21,8.02,276.7
"2016-01-19 00:09:30",1297390,6.189,317.4,22.07,1.837,13.19,103.1115,7.242,8.44,23.87,0,110.1,13.21,8.02,279.4
"2016-01-19 00:10:00",1297391,6.401,310.1,17.39,1.526,12.25,103.1141,7.249,8.33,23.38,0,110.1,13.21,8.03,272.1
"2016-01-19 00:10:30",1297392,4.341,324.8,7.56,0.397,10.11,103.117,7.257,8.24,23.41,0,110.1,13.26,8.03,286.8
"2016-01-19 00:11:00",1297393,5.81,316.2,7.491,2.078,11.8,103.1164,7.255,8.33,23.47,0,110.1,13.21,8.03,278.2
"2016-01-19 00:11:30",1297394,6.75,305,15.91,1.621,13.76,103.1173,7.257,8.45,23.27,0,110.1,13.21,8.03,267.0
"2016-01-19 00:12:00",1297395,6.019,299.5,10.34,1.587,13.24,103.1173,7.257,8.39,23.26,0,110.1,13.21,8.03,261.5
"2016-01-19 00:12:30",1297396,7.869,305.3,9.69,1.384,12.12,103.1176,7.258,8.43,23.58,0,110.1,13.21,8.04,267.3
"2016-01-19 00:13:00",1297397,9.78,303.6,5.844,1.276,13.03,103.1176,7.258,8.39,23.64,0,110.1,13.21,8.04,265.6
"2016-01-19 00:13:30",1297398,5.618,313.5,10.21,0.567,9.9,103.1176,7.258,8.23,24.02,0,110.1,13.26,8.04,275.5
"2016-01-19 00:14:00",1297399,5.84,328.7,8.97,1.433,11.74,103.1176,7.258,8.4,24.63,0,110.1,13.21,8.04,290.7
"2016-01-19 00:14:30",1297400,6.837,321.5,10.92,1.695,13.43,103.1176,7.258,8.39,24.16,0,110.1,13.21,8.04,283.5
"2016-01-19 00:15:00",1297401,10.14,314.4,9.23,1.129,13.97,103.1176,7.258,8.39,22.6,0,110.1,13.21,8.04,276.4
"2016-01-19 00:15:30",1297402,9.06,330.2,9.84,1.556,13.91,103.1181,7.26,8.38,21.79,0,110.1,13.21,8.04,292.2
"2016-01-19 00:16:00",1297403,8.59,292.5,19.92,1.803,13.5,103.1317,7.294,8.43,21.96,0,110,13.21,8.07,254.5
"2016-01-19 00:16:30",1297404,6.231,310.1,7.749,1.216,12.07,103.1444,7.327,8.35,21.86,0,110.1,13.21,8.10,272.1
"2016-01-19 00:17:00",1297405,8.7,313.7,14.03,2.411,12.96,103.1515,7.345,8.36,21.94,0,110.1,13.21,8.12,275.7
"2016-01-19 00:17:30",1297406,9.18,311,12.1,1.951,13.55,103.1667,7.384,8.51,22.1,0,110.1,13.21,8.16,273.0
"2016-01-19 00:18:00",1297407,6.081,294.5,8.94,1.314,13.24,103.1854,7.431,8.52,22.08,0,110.1,13.21,8.21,256.5
"2016-01-19 00:18:30",1297408,5.92,293.1,13.77,1.741,13.86,103.1885,7.439,8.58,22.37,0,110.1,13.21,8.22,255.1
"2016-01-19 00:19:00",1297409,6.554,286.6,10.83,1.613,11.52,103.2099,7.494,8.46,22.44,0,110.1,13.21,8.27,248.6
"2016-01-19 00:19:30",1297410,9.17,314.6,11.53,2.606,11.66,103.2192,7.518,8.47,22.41,0,110.1,13.21,8.30,276.6
"2016-01-19 00:20:00",1297411,10.65,313.1,7.277,1.21,12.2,103.2192,7.518,8.54,22.99,0,110.1,13.21,8.30,275.1
"2016-01-19 00:20:30",1297412,11.94,307.3,8.41,1.862,14.23,103.2192,7.518,8.67,22.45,0,110.1,13.21,8.30,269.3
"2016-01-19 00:21:00",1297413,12.82,311.7,8.37,1.672,14.55,103.2192,7.518,8.71,21.55,0,110.1,13.22,8.30,273.7
"2016-01-19 00:21:30",1297414,10.93,305.4,11.27,2.151,14.32,103.2291,7.543,8.72,21.7,0,110,13.21,8.32,267.4
"2016-01-19 00:22:00",1297415,11.56,327.6,10.25,1.262,13.98,103.2413,7.574,8.7,22.23,0,110.1,13.21,8.35,289.6
"2016-01-19 00:22:30",1297416,10.29,328.2,7.286,1.525,12.77,103.2486,7.593,8.66,22.46,0,110.1,13.21,8.37,290.2
"2016-01-19 00:23:00",1297417,8.06,311.7,6.07,1.024,10.52,103.2555,7.611,8.48,21.88,0,110.1,13.21,8.39,273.7
"2016-01-19 00:23:30",1297418,8.79,320,10.36,1.702,12.65,103.2584,7.618,8.71,22.12,0,110.1,13.22,8.40,282.0
"2016-01-19 00:24:00",1297419,11.97,312.2,8.86,1.398,13.12,103.2572,7.615,8.71,22.91,0,110.1,13.22,8.39,274.2
"2016-01-19 00:24:30",1297420,14.67,318.8,9.67,1.499,14.06,103.2558,7.611,8.83,23.04,0,110.1,13.22,8.39,280.8
"2016-01-19 00:25:00",1297421,14.76,309.2,7.77,1.602,14.09,103.2445,7.582,8.8,22.82,0,110.1,13.22,8.36,271.2
"2016-01-19 00:25:30",1297422,15.34,307.7,10.89,1.405,14.35,103.238,7.566,8.81,22.36,0,110.1,13.21,8.34,269.7
"2016-01-19 00:26:00",1297423,13.79,317.9,8.16,1.874,14.07,103.2314,7.549,8.8,22.53,0,110.1,13.21,8.33,279.9
"2016-01-19 00:26:30",1297424,12.6,317.8,7.804,1.515,13.87,103.23,7.545,8.82,22.62,0,110.1,13.21,8.32,279.8
"2016-01-19 00:27:00",1297425,11.55,312.7,7.687,1.624,14.61,103.2315,7.549,8.8,22.38,0,110.1,13.21,8.33,274.7
"2016-01-19 00:27:30",1297426,10.75,320,7.436,1.505,13.29,103.2338,7.555,8.78,22.12,0,110.1,13.21,8.33,282.0
"2016-01-19 00:28:00",1297427,11.93,314.5,10.09,1.812,12.39,103.2321,7.551,8.65,22.39,0,110.1,13.21,8.33,276.5
"2016-01-19 00:28:30",1297428,9.71,305.9,5.744,0.59,9.77,103.2318,7.55,8.5,22.41,0,110.1,13.26,8.33,267.9
"2016-01-19 00:29:00",1297429,9.77,300.8,13.13,1.635,11.98,103.2347,7.557,8.61,22.82,0,110.1,13.21,8.34,262.8
"2016-01-19 00:29:30",1297430,9.31,333.2,10.94,1.521,13.52,103.2319,7.55,8.75,23.02,0,110.1,13.22,8.33,295.2
"2016-01-19 00:30:00",1297431,10.26,328.9,7.637,1.411,13.33,103.2189,7.517,8.76,23.42,0,110.1,13.22,8.30,290.9
"2016-01-19 00:30:30",1297432,13.63,316.4,8.58,2.023,14.46,103.2034,7.477,8.74,22.53,0,110.1,13.21,8.26,278.4
"2016-01-19 00:31:00",1297433,12.84,324.5,10.84,2.539,14.1,103.2031,7.477,8.64,21.6,0,110.1,13.21,8.25,286.5
"2016-01-19 00:31:30",1297434,13.76,316.2,9.96,2.471,14.21,103.2046,7.48,8.72,22.12,0,110.1,13.21,8.26,278.2
"2016-01-19 00:32:00",1297435,13.15,312.2,9.35,2.096,12.49,103.216,7.51,8.58,21.69,0,110.1,13.21,8.29,274.2
"2016-01-19 00:32:30",1297436,13.18,311.1,9.39,1.809,12.3,103.2306,7.547,8.67,22.52,0,110.1,13.21,8.33,273.1
"2016-01-19 00:33:00",1297437,12.61,308.8,8.04,1.43,13.26,103.2375,7.564,8.71,22.88,0,110.1,13.21,8.34,270.8
"2016-01-19 00:33:30",1297438,13.2,325.4,10.31,2.737,13.45,103.2259,7.535,8.7,23.13,0,110.1,13.21,8.31,287.4
"2016-01-19 00:34:00",1297439,14.32,318.7,9.71,2.259,14.25,103.2115,7.498,8.73,22.72,0,110.1,13.21,8.28,280.7
"2016-01-19 00:34:30",1297440,13.63,319.7,7.425,1.966,14.28,103.2095,7.493,8.74,22.93,0,110.1,13.21,8.27,281.7
"2016-01-19 00:35:00",1297441,12.8,315.5,7.804,1.679,14.18,103.2113,7.498,8.76,23.04,0,110.1,13.21,8.28,277.5
"2016-01-19 00:35:30",1297442,13.45,305.6,8.2,1.48,14.03,103.211,7.497,8.74,22.9,0,110.1,13.21,8.28,267.6
"2016-01-19 00:36:00",1297443,13.6,318.2,10.23,1.53,13.84,103.2116,7.498,8.74,22.97,0,110.1,13.21,8.28,280.2
"2016-01-19 00:36:30",1297444,14.07,320.3,8.83,1.599,13.97,103.2096,7.493,8.71,22.55,0,110.1,13.21,8.27,282.3
"2016-01-19 00:37:00",1297445,12.06,313.1,11.19,1.452,14.28,103.2051,7.482,8.68,22.71,0,110.1,13.21,8.26,275.1
"2016-01-19 00:37:30",1297446,11.79,312.9,7.882,1.792,13.87,103.2054,7.483,8.72,22.78,0,110,13.21,8.26,274.9
"2016-01-19 00:38:00",1297447,7.95,327.9,9.67,1.692,12.4,103.2003,7.47,8.65,23.24,0,110.1,13.21,8.25,289.9
"2016-01-19 00:38:30",1297448,7.205,323,6.62,1.298,9.5,103.1964,7.459,8.42,23.13,0,110.1,13.26,8.24,285.0
"2016-01-19 00:39:00",1297449,9.51,314,8.35,0.831,10.46,103.1823,7.423,8.5,23.38,0,110,13.22,8.20,276.0
"2016-01-19 00:39:30",1297450,10.29,309.4,13.21,1.609,12.4,103.18,7.418,8.59,23.69,0,110.1,13.22,8.20,271.4
"2016-01-19 00:40:00",1297451,9.88,304.5,9.33,1.739,13.96,103.1707,7.394,8.65,23.78,0,110.1,13.22,8.17,266.5
"2016-01-19 00:40:30",1297452,15.33,311.7,11.16,1.724,14.6,103.1615,7.37,8.62,23.21,0,110.1,13.22,8.15,273.7
"2016-01-19 00:41:00",1297453,13.26,314.6,8.77,1.45,14.27,103.1528,7.348,8.62,23.27,0,110.1,13.22,8.13,276.6
"2016-01-19 00:41:30",1297454,13.5,325.4,9.41,1.58,14.35,103.1502,7.341,8.61,22.97,0,110.1,13.22,8.12,287.4
"2016-01-19 00:42:00",1297455,12.3,332.6,10.94,2.284,13.72,103.1496,7.34,8.61,23.37,0,110,13.22,8.12,294.6
"2016-01-19 00:42:30",1297456,9.46,326.1,11.03,1.902,13.32,103.1508,7.343,8.58,23.62,0,110.1,13.22,8.12,288.1
"2016-01-19 00:43:00",1297457,14.16,315.4,7.837,1.815,13.05,103.1423,7.321,8.56,24.05,0,110.1,13.22,8.10,277.4
"2016-01-19 00:43:30",1297458,14.25,316.9,12,1.942,12.9,103.1293,7.288,8.55,24.31,0,110,13.22,8.07,278.9
"2016-01-19 00:44:00",1297459,14.77,316.7,13.02,1.927,13.86,103.1184,7.26,8.51,24.03,0,110,13.22,8.04,278.7
"2016-01-19 00:44:30",1297460,15.63,309.9,7.608,1.593,14.13,103.1172,7.257,8.52,23.09,0,110.1,13.22,8.03,271.9
"2016-01-19 00:45:00",1297461,14.58,327.4,8.51,1.617,13.79,103.1175,7.258,8.51,23.48,0,110.1,13.22,8.04,289.4
"2016-01-19 00:45:30",1297462,14.27,323.3,7.295,2.044,13.58,103.109,7.236,8.49,23.69,0,110.1,13.22,8.01,285.3
"2016-01-19 00:46:00",1297463,12.86,316.2,9.94,1.901,13.53,103.1017,7.217,8.49,23.57,0,110,13.22,7.99,278.2
"2016-01-19 00:46:30",1297464,12.67,316.5,8.24,1.453,13.62,103.0975,7.207,8.45,23.53,0,110.1,13.22,7.98,278.5
"2016-01-19 00:47:00",1297465,13.79,320.1,8.8,1.468,13.78,103.098,7.208,8.45,23.66,0,109.9,13.21,7.99,282.1
"2016-01-19 00:47:30",1297466,14.9,310.8,10.38,1.401,14.1,103.0927,7.194,8.45,23.5,0,110.1,13.21,7.97,272.8
"2016-01-19 00:48:00",1297467,18.03,319.9,8.85,1.986,13.9,103.0941,7.198,8.45,23.56,0,110,13.21,7.98,281.9
"2016-01-19 00:48:30",1297468,17.75,310.8,7.799,1.322,14.15,103.098,7.208,8.45,23.36,0,110,13.21,7.99,272.8
"2016-01-19 00:49:00",1297469,15.62,314.8,8.75,1.988,14.12,103.0994,7.212,8.43,23.33,0,110,13.21,7.99,276.8
"2016-01-19 00:49:30",1297470,17.34,311.8,7.969,1.698,14.27,103.115,7.251,8.41,23.26,0,110,13.21,8.03,273.8
"2016-01-19 00:50:00",1297471,16.9,318.8,7.518,1.475,14.17,103.1186,7.261,8.47,23.43,0,110.1,13.21,8.04,280.8
"2016-01-19 00:50:30",1297472,17.27,316.9,6.759,1.46,14.08,103.1186,7.261,8.48,23.22,0,110.1,13.21,8.04,278.9
"2016-01-19 00:51:00",1297473,16.52,313.7,7.207,1.776,14.08,103.1274,7.283,8.48,23.49,0,110,13.21,8.06,275.7
"2016-01-19 00:51:30",1297474,18.1,316.9,7.903,1.383,14.41,103.1378,7.31,8.48,23.12,0,110,13.21,8.09,278.9
"2016-01-19 00:52:00",1297475,17.72,316,8.61,1.383,14.54,103.1511,7.344,8.5,23.01,0,110,13.21,8.12,278.0
"2016-01-19 00:52:30",1297476,16.5,312.9,7.821,1.927,14.12,103.1542,7.352,8.53,23.2,0,110,13.21,8.13,274.9
"2016-01-19 00:53:00",1297477,18.36,312.1,7.023,1.608,14.41,103.1664,7.383,8.55,22.86,0,110,13.21,8.16,274.1
"2016-01-19 00:53:30",1297478,18.1,309.3,6.752,1.411,14.6,103.1791,7.415,8.56,22.69,0,110,13.22,8.19,271.3
"2016-01-19 00:54:00",1297479,17.4,313.6,7.127,1.395,14.03,103.1864,7.434,8.59,23.03,0,110,13.22,8.21,275.6
"2016-01-19 00:54:30",1297480,18.19,314,7.948,1.537,14.44,103.1864,7.434,8.57,23,0,110,13.22,8.21,276.0
"2016-01-19 00:55:00",1297481,18.31,312.6,7.212,1.45,14.54,103.191,7.446,8.62,22.75,0,110,13.22,8.22,274.6
"2016-01-19 00:55:30",1297482,17.52,317.2,7.545,1.416,14.05,103.2099,7.494,8.64,22.72,0,110.1,13.22,8.27,279.2
"2016-01-19 00:56:00",1297483,17.87,313.2,8.22,1.453,14.22,103.2198,7.519,8.61,22.74,0,110,13.22,8.30,275.2
"2016-01-19 00:56:30",1297484,17.8,311.5,6.709,1.55,14.2,103.2203,7.521,8.65,22.72,0,110.1,13.22,8.30,273.5
"2016-01-19 00:57:00",1297485,16.36,309.6,7.206,1.577,14.44,103.2203,7.521,8.7,22.76,0,110,13.22,8.30,271.6
"2016-01-19 00:57:30",1297486,16.92,314.5,7.111,1.715,14.23,103.2215,7.524,8.7,22.69,0,110,13.22,8.30,276.5
"2016-01-19 00:58:00",1297487,17.83,310.6,7.657,1.385,14.4,103.226,7.535,8.7,22.59,0,110,13.22,8.31,272.6
"2016-01-19 00:58:30",1297488,16.46,313.1,7.698,1.978,14.05,103.2342,7.556,8.73,22.62,0,110,13.22,8.33,275.1
"2016-01-19 00:59:00",1297489,17.65,307.8,8.22,1.419,14.2,103.2404,7.572,8.74,22.68,0,110,13.22,8.35,269.8
"2016-01-19 00:59:30",1297490,17.58,309.7,8.87,1.885,14.16,103.2444,7.582,8.71,22.7,0,110,13.22,8.36,271.7
"2016-01-19 01:00:00",1297491,19.67,304.9,6.941,1.342,14.46,103.248,7.591,8.76,22.65,0,110,13.22,8.37,266.9
"2016-01-19 01:00:30",1297492,19.54,306,6.882,1.528,14.46,103.2531,7.604,8.78,22.63,0,110,13.22,8.38,268.0
"2016-01-19 01:01:00",1297493,19.24,305.2,6.431,1.377,14.27,103.2542,7.607,8.77,22.69,0,110,13.22,8.39,267.2
"2016-01-19 01:01:30",1297494,18.57,304.2,7.522,1.4,13.89,103.2542,7.607,8.79,22.91,0,110,13.22,8.39,266.2
"2016-01-19 01:02:00",1297495,18.22,302.4,7.46,1.379,13.92,103.2542,7.607,8.77,22.91,0,110,13.22,8.39,264.4
"2016-01-19 01:02:30",1297496,19.34,304.2,6.911,1.411,14.56,103.2542,7.607,8.79,22.68,0,110,13.22,8.39,266.2
"2016-01-19 01:03:00",1297497,18.61,308.1,6.665,1.455,14.26,103.2542,7.607,8.8,22.67,0,110,13.22,8.39,270.1
"2016-01-19 01:03:30",1297498,17.57,305.8,7.456,1.668,14.15,103.2542,7.607,8.79,22.91,0,110,13.22,8.39,267.8
"2016-01-19 01:04:00",1297499,19.86,303.4,6.39,1.326,14.15,103.2537,7.606,8.81,22.93,0,110,13.22,8.38,265.4
"2016-01-19 01:04:30",1297500,19.41,304,6.468,1.548,14.29,103.2542,7.607,8.78,22.79,0,110,13.21,8.39,266.0
"2016-01-19 01:05:00",1297501,19.53,303.2,6.676,1.295,14.27,103.2542,7.607,8.77,22.66,0,110,13.21,8.39,265.2
"2016-01-19 01:05:30",1297502,18.9,304.6,6.475,1.3,14.39,103.2542,7.607,8.81,22.56,0,110,13.21,8.39,266.6
"2016-01-19 01:06:00",1297503,19.94,307.1,6.103,1.248,14.11,103.2542,7.607,8.82,22.57,0,110,13.21,8.39,269.1
"2016-01-19 01:06:30",1297504,19.73,303.8,6.775,1.845,14.56,103.2542,7.607,8.8,22.48,0,110,13.21,8.39,265.8
"2016-01-19 01:07:00",1297505,18.65,305.3,6.725,1.479,14.5,103.2571,7.615,8.81,22.32,0,110,13.21,8.39,267.3
"2016-01-19 01:07:30",1297506,16.97,308,7.936,1.263,14.74,103.2701,7.648,8.81,22.12,0,110,13.21,8.43,270.0
"2016-01-19 01:08:00",1297507,17.14,310.4,6.645,1.423,14.49,103.274,7.658,8.83,22.06,0,110,13.21,8.44,272.4
"2016-01-19 01:08:30",1297508,18.19,310.4,6.809,1.415,14.27,103.2867,7.69,8.85,22.18,0,110,13.21,8.47,272.4
"2016-01-19 01:09:00",1297509,18.47,309.7,7.241,1.47,14.52,103.2881,7.694,8.85,22.25,0,110,13.21,8.47,271.7
"2016-01-19 01:09:30",1297510,19.43,308.9,6.457,1.269,14.56,103.2893,7.697,8.87,22,0,110,13.22,8.48,270.9
"2016-01-19 01:10:00",1297511,19.87,306.4,6.713,1.358,14.68,103.3003,7.725,8.88,22.08,0,110,13.22,8.50,268.4
"2016-01-19 01:10:30",1297512,19.53,304.9,6.77,1.292,14.44,103.3088,7.747,8.91,22.17,0,110,13.22,8.53,266.9
"2016-01-19 01:11:00",1297513,20.17,303.3,6.678,1.297,14.43,103.3203,7.776,8.93,22.19,0,110,13.22,8.56,265.3
"2016-01-19 01:11:30",1297514,19.11,303.9,6.741,1.316,14.56,103.322,7.781,8.94,22.09,0,110,13.22,8.56,265.9
"2016-01-19 01:12:00",1297515,19.68,301.3,7.236,1.313,14.55,103.3223,7.781,8.93,22.22,0,110,13.22,8.56,263.3
"2016-01-19 01:12:30",1297516,19.12,303.9,6.315,1.643,14.87,103.3266,7.792,8.99,22.03,0,110,13.22,8.57,265.9
"2016-01-19 01:13:00",1297517,18.19,304.3,6.722,1.361,14.49,103.3379,7.821,9,21.77,0,110,13.22,8.60,266.3
"2016-01-19 01:13:30",1297518,18.49,304.8,6.712,1.251,14.15,103.3463,7.843,8.98,22.04,0,110,13.22,8.62,266.8
"2016-01-19 01:14:00",1297519,18.99,302.5,6.952,1.281,14.2,103.3537,7.861,8.98,22.03,0,110.1,13.23,8.64,264.5
"2016-01-19 01:14:30",1297520,19.46,302.6,6.64,1.255,14.46,103.3559,7.867,9,22.18,0,110,13.23,8.65,264.6
"2016-01-19 01:15:00",1297521,19.26,301.4,6.599,1.363,14.41,103.3559,7.867,9.03,22.18,0,110,13.23,8.65,263.4
"2016-01-19 01:15:30",1297522,19.52,302.9,6.158,1.284,14.53,103.3559,7.867,9.05,22.19,0,110.1,13.23,8.65,264.9
"2016-01-19 01:16:00",1297523,19.08,304.1,6.34,1.258,14.29,103.3559,7.867,9.05,22.15,0,110,13.23,8.65,266.1
"2016-01-19 01:16:30",1297524,18.76,304.9,6.593,1.243,14.21,103.3559,7.867,9.05,22.1,0,110,13.23,8.65,266.9
"2016-01-19 01:17:00",1297525,18.45,304.7,6.614,1.26,14.33,103.3559,7.867,9.05,22.19,0,110.1,13.23,8.65,266.7
"2016-01-19 01:17:30",1297526,18.13,303.2,6.689,1.37,14.16,103.3559,7.867,9.04,22.24,0,110,13.22,8.65,265.2
"2016-01-19 01:18:00",1297527,18.9,304.6,6.446,1.368,14.48,103.3559,7.867,9.05,22.3,0,110,13.23,8.65,266.6
"2016-01-19 01:18:30",1297528,19.14,302,6.17,1.435,14.35,103.3559,7.867,9.08,22.32,0,110,13.23,8.65,264.0
"2016-01-19 01:19:00",1297529,19.66,301.4,7.045,1.299,14.12,103.3556,7.867,9.07,22.3,0,110.1,13.23,8.65,263.4
"2016-01-19 01:19:30",1297530,20.05,303.2,6.238,1.277,14.29,103.35,7.852,9.08,22.32,0,110,13.22,8.63,265.2
"2016-01-19 01:20:00",1297531,20.06,303,6.587,1.3,14.3,103.3429,7.834,9.04,22.31,0,110,13.23,8.61,265.0
"2016-01-19 01:20:30",1297532,19.87,299.9,6.925,1.465,14.44,103.3395,7.825,9.02,22.11,0,110,13.23,8.60,261.9
"2016-01-19 01:21:00",1297533,19.64,299.3,6.637,1.362,14.25,103.3367,7.818,9.06,22.18,0,110,13.21,8.60,261.3
"2016-01-19 01:21:30",1297534,19.8,300.2,6.07,1.273,14.08,103.3294,7.799,9.05,22.22,0,110,13.21,8.58,262.2
"2016-01-19 01:22:00",1297535,19.12,303.5,6.689,1.349,14.37,103.3223,7.781,9.04,22.18,0,110.1,13.21,8.56,265.5
"2016-01-19 01:22:30",1297536,18.19,304.2,6.393,1.339,13.93,103.322,7.781,9.01,22.32,0,110.1,13.21,8.56,266.2
"2016-01-19 01:23:00",1297537,20.08,300.8,6.428,1.37,14.45,103.322,7.781,8.98,22.41,0,110.1,13.21,8.56,262.8
"2016-01-19 01:23:30",1297538,19.83,300.7,6.215,1.376,14.36,103.3189,7.773,9.01,22.4,0,110,13.21,8.55,262.7
"2016-01-19 01:24:00",1297539,20.02,299.7,6.679,1.264,14.07,103.3082,7.745,9.01,22.38,0,110,13.21,8.52,261.7
"2016-01-19 01:24:30",1297540,19.69,298.3,7.112,1.285,13.71,103.3051,7.737,8.95,22.58,0,110.1,13.21,8.52,260.3
"2016-01-19 01:25:00",1297541,20.27,294,6.353,1.389,14.67,103.3025,7.731,8.95,22.48,0,110,13.21,8.51,256.0
"2016-01-19 01:25:30",1297542,20.15,296.8,6.569,1.337,14.37,103.2938,7.708,8.96,22.4,0,110,13.21,8.49,258.8
"2016-01-19 01:26:00",1297543,19.85,296.5,6.541,1.356,14.12,103.2929,7.706,8.95,22.54,0,110,13.22,8.49,258.5
"2016-01-19 01:26:30",1297544,20.4,300.4,7.131,1.453,14.25,103.289,7.696,8.95,23,0,110,13.22,8.48,262.4
"2016-01-19 01:27:00",1297545,20.66,299.6,6.259,1.327,14.22,103.2881,7.694,8.95,22.55,0,110.1,13.22,8.47,261.6
"2016-01-19 01:27:30",1297546,20.29,296.7,6.587,1.282,14.04,103.2881,7.694,8.92,22.4,0,110.1,13.22,8.47,258.7
"2016-01-19 01:28:00",1297547,19.92,297,6.376,1.357,14.25,103.2881,7.694,8.88,22.43,0,110.1,13.23,8.47,259.0
"2016-01-19 01:28:30",1297548,19.84,297.6,6.355,1.239,14.47,103.2853,7.687,8.92,22.48,0,110.1,13.23,8.47,259.6
"2016-01-19 01:29:00",1297549,20.3,297.2,6.659,1.296,14.16,103.2777,7.667,8.9,22.45,0,110,13.23,8.45,259.2
"2016-01-19 01:29:30",1297550,19.5,296.6,6.518,1.312,14.25,103.2717,7.652,8.9,22.51,0,110,13.22,8.43,258.6
"2016-01-19 01:30:00",1297551,19.28,299.6,6.424,1.22,13.88,103.2703,7.648,8.91,22.57,0,110,13.22,8.43,261.6
"2016-01-19 01:30:30",1297552,19.29,297.2,7.249,1.316,14.14,103.2709,7.65,8.87,22.65,0,110.1,13.23,8.43,259.2
"2016-01-19 01:31:00",1297553,19.28,299.7,6.8,1.377,14.39,103.2681,7.643,8.88,22.71,0,110,13.23,8.42,261.7
"2016-01-19 01:31:30",1297554,18.27,299.3,6.79,1.27,14.2,103.2641,7.633,8.87,22.75,0,110.1,13.23,8.41,261.3
"2016-01-19 01:32:00",1297555,18.8,300.5,6.318,1.298,14.33,103.2576,7.616,8.88,22.73,0,110,13.23,8.39,262.5
"2016-01-19 01:32:30",1297556,19.58,299.3,6.55,1.229,14.05,103.2582,7.617,8.86,22.7,0,110.1,13.23,8.40,261.3
"2016-01-19 01:33:00",1297557,18.95,297.5,6.477,1.3,13.95,103.2554,7.61,8.83,22.7,0,110,13.23,8.39,259.5
"2016-01-19 01:33:30",1297558,19.19,299.3,6.592,1.26,14.2,103.2551,7.609,8.84,22.72,0,110,13.23,8.39,261.3
"2016-01-19 01:34:00",1297559,18.76,301.2,6.506,1.284,14.08,103.2542,7.607,8.88,22.78,0,110,13.23,8.39,263.2
"2016-01-19 01:34:30",1297560,18.9,301.8,6.482,1.311,13.79,103.2542,7.607,8.85,22.81,0,110.1,13.23,8.39,263.8
"2016-01-19 01:35:00",1297561,18.63,303,6.193,1.464,14.23,103.2542,7.607,8.86,22.8,0,110.1,13.23,8.39,265.0
"2016-01-19 01:35:30",1297562,18.51,303.8,6.414,1.232,14.07,103.2542,7.607,8.83,22.84,0,110,13.23,8.39,265.8
"2016-01-19 01:36:00",1297563,18.5,303.1,6.915,1.406,14.12,103.2542,7.607,8.82,22.79,0,110,13.23,8.39,265.1
"2016-01-19 01:36:30",1297564,18.76,304.5,6.403,1.27,13.99,103.2528,7.604,8.83,22.87,0,110.1,13.22,8.38,266.5
"2016-01-19 01:37:00",1297565,19.25,303.2,6.092,1.272,13.78,103.2455,7.585,8.82,22.86,0,110,13.23,8.36,265.2
"2016-01-19 01:37:30",1297566,19.25,302.5,6.81,1.251,14.06,103.239,7.568,8.8,22.92,0,110,13.21,8.35,264.5
"2016-01-19 01:38:00",1297567,19.25,304.1,6.504,1.274,14.03,103.2251,7.533,8.8,22.89,0,110.1,13.22,8.31,266.1
"2016-01-19 01:38:30",1297568,18.56,306,6.438,1.309,14.31,103.2206,7.521,8.77,22.86,0,110,13.21,8.30,268.0
"2016-01-19 01:39:00",1297569,17.88,304.2,6.214,1.247,14.26,103.2203,7.521,8.77,22.85,0,110,13.21,8.30,266.2
"2016-01-19 01:39:30",1297570,18.35,303,6.125,1.319,14.02,103.2203,7.521,8.78,22.87,0,110.1,13.21,8.30,265.0
"2016-01-19 01:40:00",1297571,17.83,304.3,7.095,1.287,13.83,103.2203,7.521,8.77,22.81,0,110,13.21,8.30,266.3
"2016-01-19 01:40:30",1297572,17.98,302.7,6.752,1.245,13.97,103.2203,7.521,8.77,22.95,0,110,13.21,8.30,264.7
"2016-01-19 01:41:00",1297573,17.34,303.3,6.366,1.326,14.32,103.2203,7.521,8.75,22.91,0,110.1,13.21,8.30,265.3
"2016-01-19 01:41:30",1297574,16.74,307.8,6.924,1.429,13.9,103.2203,7.521,8.75,22.84,0,110,13.21,8.30,269.8
"2016-01-19 01:42:00",1297575,16.98,306.5,6.404,1.257,14.23,103.2203,7.521,8.74,22.81,0,110,13.21,8.30,268.5
"2016-01-19 01:42:30",1297576,16.2,307,6.071,1.288,14.01,103.2203,7.521,8.76,22.85,0,110,13.21,8.30,269.0
"2016-01-19 01:43:00",1297577,16.41,306.4,7.272,1.408,13.35,103.2203,7.521,8.76,23.12,0,110,13.22,8.30,268.4
"2016-01-19 01:43:30",1297578,17.59,303.8,6.812,1.345,13.82,103.2203,7.521,8.73,23.01,0,110,13.23,8.30,265.8
"2016-01-19 01:44:00",1297579,18.54,309.7,6.924,1.408,14.34,103.2181,7.515,8.73,22.83,0,110.1,13.23,8.29,271.7
"2016-01-19 01:44:30",1297580,18.17,310.7,6.303,1.532,14.18,103.215,7.507,8.73,22.74,0,110,13.23,8.29,272.7
"2016-01-19 01:45:00",1297581,17.95,310,6.733,1.399,14.33,103.2161,7.51,8.75,22.62,0,110,13.23,8.29,272.0
"2016-01-19 01:45:30",1297582,18.14,308.5,6.756,1.173,14.1,103.2198,7.519,8.74,22.64,0,110,13.23,8.30,270.5
"2016-01-19 01:46:00",1297583,18.28,308.5,6.661,1.34,14.29,103.2203,7.521,8.7,22.56,0,110,13.23,8.30,270.5
"2016-01-19 01:46:30",1297584,18.34,306.6,6.58,1.307,14.49,103.2203,7.521,8.71,22.69,0,110,13.23,8.30,268.6
"2016-01-19 01:47:00",1297585,17.78,306.8,6.853,1.296,14.37,103.2203,7.521,8.74,22.62,0,110.1,13.23,8.30,268.8
"2016-01-19 01:47:30",1297586,17.83,308.7,6.261,1.308,14.62,103.2206,7.521,8.76,22.53,0,110.1,13.23,8.30,270.7
"2016-01-19 01:48:00",1297587,17.68,311.3,6.145,1.197,14.35,103.2297,7.545,8.76,22.35,0,110.1,13.23,8.32,273.3
"2016-01-19 01:48:30",1297588,17.47,310.3,6.587,1.327,14.23,103.2511,7.599,8.76,22.3,0,110,13.23,8.38,272.3
"2016-01-19 01:49:00",1297589,17.36,309.5,7.008,1.296,14.73,103.2542,7.607,8.78,22.29,0,110.1,13.23,8.39,271.5
"2016-01-19 01:49:30",1297590,17.6,310.1,6.398,1.42,14.52,103.2582,7.617,8.81,22.25,0,110,13.23,8.40,272.1